GFSCGP_sfc_dewp_126.txt.gz
Dewpoint
21 18 14 13 13 14 12 8 8 11 12 11 12 10 8 11 24 27 26 27 27 28 29 31 34 36 38 40 42 44 46 48 43 38 58 63 64 64 65 64 66 67 67 68
20 17 16 15 14 12 13 13 13 14 14 12 10 9 11 15 26 26 27 27 28 28 28 30 31 33 36 38 39 41 42 43 45 47 47 59 63 64 64 63 64 67 67 67
17 15 18 17 14 9 13 15 15 15 13 13 13 11 9 26 27 28 28 28 28 28 28 30 30 31 33 34 37 39 40 41 43 46 47 48 54 63 63 62 62 67 67 67
15 16 15 15 15 13 15 17 15 16 18 17 18 18 18 21 27 28 28 29 28 28 29 29 30 29 30 32 35 38 39 40 41 45 47 52 53 54 61 62 61 65 67 67
15 18 18 15 12 16 19 21 21 21 20 21 20 20 24 27 27 27 28 28 28 29 30 29 29 29 29 31 33 37 38 39 42 44 49 50 51 54 59 62 60 63 66 66
21 20 19 19 18 22 23 22 23 23 21 22 19 25 29 28 27 27 29 29 27 28 29 29 29 31 31 33 35 35 38 39 42 45 48 51 53 54 56 61 59 61 65 65
18 18 16 19 21 22 22 23 20 18 22 17 18 18 28 26 27 28 30 29 28 29 30 29 30 31 32 32 33 35 36 38 42 44 48 52 54 58 59 61 59 60 63 65
12 16 18 22 23 18 21 20 20 15 18 20 19 20 26 27 28 28 27 31 28 28 30 31 32 32 32 31 32 33 35 37 41 44 48 49 51 55 56 55 59 62 64 64
24 16 19 23 23 20 22 20 24 26 23 25 24 31 30 28 28 28 28 27 29 29 29 31 32 32 31 31 32 33 34 38 40 42 45 46 47 48 51 52 52 56 56 57
25 27 21 20 21 21 22 22 24 29 24 18 18 31 30 28 28 30 29 29 29 29 29 31 31 31 31 32 32 33 35 37 39 41 42 42 43 45 47 48 48 50 50 51
24 31 22 20 21 17 24 25 28 28 27 24 24 26 30 30 30 28 28 30 30 30 29 31 31 31 32 32 32 33 34 36 38 39 39 38 40 41 42 42 44 45 45 45
25 29 25 22 21 23 21 22 23 24 21 29 29 27 31 29 29 27 27 30 31 31 30 31 31 30 31 31 32 32 34 36 36 38 37 38 38 38 39 38 40 41 41 42
30 27 24 23 22 25 21 24 24 26 27 26 24 26 29 28 27 27 29 29 31 30 30 30 30 29 31 31 32 32 33 35 36 37 37 35 36 36 36 37 37 37 38 39
34 29 29 28 32 31 27 25 25 26 29 29 30 26 26 26 26 27 27 29 31 30 30 29 29 29 30 31 31 32 32 32 33 35 35 35 35 35 36 36 36 36 36 36
29 31 30 30 30 29 27 28 27 25 27 29 29 26 24 26 27 26 27 27 25 26 25 27 28 28 29 30 30 31 32 30 31 33 34 35 35 36 35 35 34 35 34 34
28 32 33 30 29 29 31 33 30 27 27 27 25 25 27 26 27 26 25 23 22 22 24 24 25 26 29 28 28 28 29 29 30 30 31 33 34 34 34 34 34 33 33 32
31 30 30 24 27 27 28 32 31 27 26 26 26 28 27 26 26 25 24 23 22 22 23 27 28 28 28 29 28 29 28 29 28 29 29 30 31 31 32 32 32 32 32 32
29 30 31 25 31 23 29 30 27 24 24 25 25 26 25 26 26 26 25 24 23 22 22 26 30 30 30 29 29 29 29 29 29 28 29 29 30 29 29 30 31 31 31 31
22 30 28 24 22 27 27 26 26 24 25 26 25 25 25 26 26 26 25 24 23 23 23 22 24 28 30 29 28 29 30 29 29 29 29 30 29 29 31 30 31 31 31 32
20 32 29 27 20 17 29 27 29 28 27 27 27 26 26 26 26 26 25 25 24 21 20 19 19 18 20 24 26 27 29 30 29 29 31 30 31 30 29 30 31 32 31 31
29 31 27 27 22 24 27 29 31 25 27 28 28 28 27 26 27 26 25 24 24 19 18 20 18 18 17 18 21 21 22 25 29 29 27 29 31 29 30 29 28 28 30 28
26 25 26 27 23 22 29 31 30 31 30 28 28 29 27 26 26 25 24 26 20 17 17 17 17 17 16 16 17 18 19 18 20 22 24 24 25 26 26 26 26 25 25 25
27 26 30 27 27 30 34 35 34 31 33 31 29 26 26 25 26 26 25 26 19 14 14 13 12 13 15 14 15 16 18 17 18 19 20 22 21 20 22 23 24 21 20 20
28 28 31 28 28 29 35 36 36 35 35 33 30 27 26 24 25 24 24 20 16 11 9 9 9 8 10 11 12 15 16 17 18 17 19 19 20 20 20 20 20 21 20 19
29 27 28 29 29 29 33 35 35 35 35 32 29 25 24 23 22 18 16 14 12 9 9 9 9 9 9 9 10 11 13 16 15 18 17 19 20 20 19 21 22 22 20 19
28 29 29 31 32 31 31 35 35 33 32 29 25 22 21 20 19 18 14 12 10 10 9 9 10 11 9 9 9 11 12 14 17 17 18 20 21 21 19 19 20 22 20 20

GFSCGP_sfc_dewp_129.txt.gz
Dewpoint
22 20 17 17 17 17 14 11 7 9 12 14 14 11 11 15 26 27 27 28 28 27 29 29 30 30 31 31 31 33 35 37 39 40 42 45 50 56 64 64 65 65 68 69
20 19 20 20 17 15 13 13 14 15 15 16 12 11 20 26 27 28 28 28 28 27 28 29 29 29 29 29 29 31 33 35 37 38 40 43 47 52 55 62 64 66 65 68
21 21 21 19 17 17 13 12 14 16 17 18 17 16 25 28 28 28 28 28 27 27 28 28 28 28 28 28 29 30 31 33 36 38 39 41 45 51 54 56 62 63 66 66
19 18 18 17 16 17 15 16 19 20 21 18 19 16 26 28 27 28 28 28 27 28 28 28 28 27 27 29 30 30 31 33 35 38 39 42 44 47 50 53 55 60 64 66
20 20 18 19 19 14 13 26 22 23 21 21 20 22 25 30 29 28 29 29 28 28 28 28 28 28 28 29 30 31 31 32 35 38 40 42 44 46 49 50 53 54 62 65
22 23 21 20 20 22 24 23 23 23 22 20 20 21 27 26 28 28 29 29 28 27 28 29 29 29 29 30 31 31 31 34 36 38 41 43 44 46 47 49 52 53 57 64
20 19 16 19 19 24 22 22 22 19 20 19 22 22 24 27 28 28 28 29 27 28 28 28 29 29 29 31 33 34 34 35 37 39 41 43 46 49 50 50 52 54 54 54
18 18 22 19 17 20 22 21 23 16 18 21 23 22 25 28 29 28 27 29 28 28 29 28 28 29 30 32 33 33 33 34 36 39 41 44 47 49 53 54 56 56 53 53
25 26 26 22 24 24 22 20 22 25 26 20 25 27 31 28 28 27 28 27 28 29 28 27 28 29 31 32 32 32 33 34 35 38 40 42 43 46 51 52 51 54 51 52
30 23 24 22 25 23 22 22 24 28 18 19 22 26 22 24 27 29 28 28 29 29 27 27 28 29 31 32 32 32 33 33 34 36 38 40 41 42 44 44 45 48 52 51
28 28 25 25 23 20 21 22 31 32 27 18 12 22 30 27 25 27 28 28 29 27 26 28 28 29 31 32 32 32 32 32 33 35 36 38 38 39 39 40 40 42 44 45
29 31 27 24 25 26 24 26 30 25 22 24 26 20 32 29 28 28 28 29 26 27 25 28 29 29 30 31 31 32 32 32 33 33 33 36 37 37 36 36 37 39 40 41
32 29 25 25 26 31 27 25 26 27 26 21 15 17 29 29 28 27 29 24 23 23 26 26 28 29 30 31 31 32 32 32 33 34 33 35 35 35 35 34 35 36 36 36
35 32 29 25 29 34 34 33 26 28 19 22 25 26 28 26 26 27 27 25 23 24 26 26 27 28 29 29 30 31 31 32 33 34 33 34 34 35 34 33 33 33 34 33
29 27 31 31 31 29 30 33 29 27 27 26 27 25 26 26 27 26 28 26 24 25 25 25 26 27 28 29 29 28 28 28 30 31 32 32 33 34 33 32 33 33 33 33
27 27 31 27 27 29 28 31 28 30 28 27 27 24 28 28 28 25 26 23 22 23 24 24 26 27 28 27 27 28 28 27 28 28 29 31 31 31 32 33 32 31 31 31
27 29 30 24 28 32 26 27 27 29 30 29 25 27 27 26 25 24 24 23 22 22 25 26 27 29 27 28 28 29 28 28 27 27 28 29 30 30 31 30 31 31 30 30
29 31 31 27 25 19 29 32 31 28 26 27 26 26 27 26 25 26 26 24 24 23 24 25 26 27 29 27 28 30 30 28 28 27 28 28 28 28 29 30 30 30 31 29
25 32 27 23 23 26 28 28 28 27 26 27 26 26 25 26 25 25 25 26 25 23 23 22 23 24 27 26 25 28 29 28 26 28 28 28 27 26 27 27 29 29 30 30
22 33 27 26 22 18 27 30 31 30 26 28 27 26 26 26 25 24 26 26 27 22 20 19 18 17 17 22 22 23 26 24 25 25 26 28 28 26 23 24 25 26 26 27
19 25 25 25 24 25 29 31 32 24 23 30 28 27 26 26 26 26 26 26 26 18 19 19 17 15 15 16 18 18 20 23 24 24 23 26 26 26 24 22 22 23 23 22
20 26 27 27 23 19 32 31 28 30 30 29 28 27 26 26 26 26 25 25 24 17 15 15 15 14 14 14 15 16 17 17 19 21 23 22 24 24 24 22 22 21 20 18
29 29 28 27 26 31 35 35 34 33 30 29 29 29 28 27 25 26 26 25 18 12 11 10 11 11 11 12 12 13 15 17 19 20 20 21 21 22 22 23 21 19 19 17
31 33 28 27 29 31 35 36 35 35 33 32 31 30 29 26 25 25 25 24 14 9 9 9 9 9 10 10 10 12 15 17 18 18 18 20 20 19 21 21 21 19 18 17
30 29 29 28 30 32 34 35 35 35 35 34 33 30 26 24 24 23 15 12 10 9 10 12 12 11 10 10 10 12 14 16 18 18 18 19 21 20 19 20 20 19 18 19
31 29 26 24 28 28 30 33 33 31 31 32 32 31 27 22 17 14 13 12 11 11 12 12 11 11 11 10 11 13 14 16 18 20 17 19 20 21 19 20 20 22 20 21

GFSCGP_sfc_dewp_132.txt.gz
Dewpoint
21 18 17 17 18 17 17 13 9 9 12 15 14 12 21 27 28 28 28 27 27 27 28 29 29 28 28 27 28 28 30 30 31 33 34 37 38 42 45 52 54 62 64 64
20 19 20 21 21 21 17 11 11 14 16 17 14 19 27 27 28 28 28 27 27 27 28 28 28 28 27 27 28 29 29 30 30 32 33 36 38 41 45 46 52 58 60 63
19 22 21 20 20 20 16 12 12 12 19 21 18 18 26 27 28 29 28 28 27 27 27 28 28 27 27 28 28 29 30 30 31 32 34 35 38 42 44 47 51 55 59 62
19 20 20 19 18 18 16 15 16 21 21 18 21 15 26 27 28 28 28 27 27 27 27 27 27 27 27 28 29 30 30 30 32 32 33 34 35 37 41 46 49 50 53 57
20 19 18 20 20 19 16 25 23 23 20 20 20 20 24 29 28 28 28 28 27 27 27 27 27 27 28 28 29 30 31 31 32 33 35 35 37 39 40 44 46 48 50 54
22 24 23 21 21 21 24 24 24 25 22 20 21 21 24 26 27 27 28 27 27 27 28 27 28 28 27 28 29 30 32 32 33 36 38 38 39 39 40 42 45 47 50 53
20 20 20 20 20 21 21 22 20 19 20 20 23 22 24 27 27 28 27 28 28 28 28 27 27 28 28 29 30 31 32 32 32 35 37 39 41 43 45 45 46 48 49 52
18 19 22 25 18 18 21 22 21 17 16 21 22 20 24 28 28 28 27 28 28 27 27 27 27 29 29 30 31 32 33 33 33 35 36 39 41 43 45 47 48 49 52 53
22 22 26 21 24 21 22 21 23 23 25 21 24 27 28 28 28 29 28 27 28 27 27 27 27 28 29 31 32 33 32 33 32 35 35 37 38 40 43 46 50 52 54 54
29 22 24 25 24 24 21 22 21 25 15 20 24 26 22 27 26 28 28 28 27 27 27 27 27 28 29 32 32 33 33 32 32 33 35 36 37 38 40 42 44 45 50 50
30 26 23 25 23 22 22 22 29 29 27 23 17 21 30 27 23 25 28 29 23 24 25 27 27 27 29 30 31 31 32 31 32 33 34 35 35 36 38 38 39 40 41 43
30 30 25 23 25 27 24 26 28 26 25 26 22 20 30 28 28 28 29 26 22 25 25 26 26 28 28 29 29 30 31 31 32 33 33 33 34 34 35 37 37 37 36 37
29 29 23 20 27 34 33 31 27 29 27 22 16 16 30 28 28 27 28 21 20 21 22 22 25 27 28 28 29 29 31 31 32 32 32 33 33 33 33 35 35 36 36 35
35 31 27 23 28 33 31 32 34 30 21 21 23 20 28 28 28 27 27 23 20 19 20 21 24 26 28 28 29 28 28 30 32 32 32 32 32 33 33 33 33 34 32 33
28 25 30 29 30 30 28 28 31 31 28 25 20 26 26 28 27 27 27 25 24 25 24 24 24 26 26 28 28 28 27 27 28 29 31 32 32 33 33 32 31 31 30 31
28 21 28 23 28 29 27 27 29 31 29 27 27 26 28 29 28 26 25 23 22 23 23 24 26 25 25 26 27 27 27 27 27 26 27 28 29 30 31 32 29 29 29 28
26 25 27 21 24 27 25 27 30 29 29 27 25 27 28 27 25 25 24 23 22 23 24 24 25 27 26 25 26 27 28 26 27 26 24 23 26 27 28 28 29 27 27 27
27 26 28 24 25 15 22 32 32 29 29 28 27 27 27 26 26 26 25 23 23 23 23 23 23 23 26 24 24 26 25 26 25 26 24 22 20 22 24 25 26 28 27 24
28 29 29 24 22 23 27 28 29 29 27 28 27 26 25 25 25 25 25 26 26 23 22 20 20 22 22 22 22 22 25 24 24 25 25 24 22 20 20 21 22 23 23 23
25 28 28 26 21 16 26 30 31 31 25 28 27 26 25 25 23 24 26 26 26 22 19 16 16 15 16 18 20 20 21 23 23 24 25 25 23 22 21 21 20 20 21 21
22 26 23 24 22 24 29 31 32 25 23 29 27 26 25 25 26 27 26 26 27 18 16 16 14 13 13 14 16 17 18 20 23 23 23 24 24 22 21 21 21 19 18 18
20 21 22 24 23 18 32 29 26 28 29 28 27 27 27 26 27 26 26 26 19 16 14 12 12 11 11 11 13 14 15 18 20 21 22 21 22 24 22 21 20 19 18 16
25 27 27 27 24 31 35 33 32 30 28 29 27 26 27 27 27 26 26 23 16 10 10 10 10 10 10 10 11 13 15 18 19 19 20 21 20 21 22 21 20 18 17 16
36 32 28 27 28 31 34 35 34 32 31 29 29 28 29 27 27 25 23 16 12 8 9 10 9 8 6 9 10 13 16 19 19 17 19 20 19 19 20 21 20 19 17 16
30 30 28 28 30 31 32 35 34 32 31 30 29 28 27 26 23 23 14 11 10 11 12 11 10 7 7 8 10 13 15 17 18 15 17 19 20 20 19 20 20 20 20 20
31 29 24 24 29 27 31 33 35 33 31 30 29 28 27 26 26 15 13 12 12 13 12 11 10 8 8 8 10 13 15 16 18 14 16 18 18 19 19 18 17 20 21 25

GFSCGP_sfc_dewp_135.txt.gz
Dewpoint
22 18 17 17 17 17 17 16 14 12 11 15 14 14 26 28 28 27 27 27 27 27 28 28 28 28 28 28 28 29 29 30 31 31 31 32 32 34 37 40 43 46 47 54
19 17 19 20 21 20 19 18 17 12 15 16 15 19 27 27 28 28 27 27 27 27 27 27 27 27 27 28 28 28 30 30 30 31 32 32 33 34 37 39 42 44 49 55
16 17 20 19 19 18 20 18 13 13 19 21 18 19 26 27 28 28 28 27 27 27 27 27 27 27 27 27 28 29 30 30 31 31 33 33 34 34 35 38 41 46 50 51
16 20 20 21 20 20 17 19 17 16 20 16 20 15 24 27 28 28 28 27 27 27 27 27 27 27 27 27 28 29 29 29 30 33 32 33 33 32 34 36 39 43 47 49
17 18 17 17 18 22 19 22 21 22 20 20 19 17 21 28 28 28 27 27 27 27 28 27 27 27 27 28 28 29 29 30 31 31 33 34 35 36 36 36 38 40 43 46
20 23 23 22 21 20 22 24 22 25 22 18 17 18 20 25 27 27 28 27 27 27 28 27 27 27 28 28 29 29 30 31 31 33 34 36 36 37 38 39 38 39 43 46
20 19 21 22 19 22 20 20 18 18 19 18 22 21 23 27 27 27 27 27 28 28 27 27 27 27 28 29 30 31 31 29 31 33 34 36 36 38 39 41 42 44 43 46
17 17 22 24 21 17 20 20 19 17 15 18 22 19 24 28 28 29 28 29 28 27 27 27 27 27 29 30 31 32 32 29 32 32 33 36 37 37 38 41 43 45 47 48
21 20 25 22 24 22 20 21 24 24 24 20 23 27 28 27 28 28 28 27 26 25 26 26 26 27 29 30 31 32 32 30 33 34 34 35 36 36 36 38 42 46 50 50
25 21 24 25 25 23 23 23 26 28 19 18 22 22 22 28 27 27 22 27 23 25 24 25 25 26 28 29 31 31 30 31 32 33 34 34 34 35 35 37 38 41 45 47
28 24 22 26 23 25 25 24 28 27 25 18 14 20 29 26 23 22 24 27 20 21 21 23 24 26 27 28 29 29 30 31 32 33 33 33 33 33 33 34 36 37 40 41
28 28 25 24 26 26 27 29 29 28 24 26 20 21 30 28 27 27 26 22 20 21 19 20 22 24 26 27 28 28 28 29 31 32 33 33 32 32 32 32 33 35 36 37
29 26 22 21 28 32 32 33 34 33 31 26 22 21 30 29 28 28 23 20 17 17 20 20 21 23 25 27 28 28 28 28 28 30 31 31 31 31 31 31 32 33 34 35
34 29 25 20 23 31 29 27 31 31 24 23 24 25 29 28 27 27 25 23 19 17 18 18 20 22 24 26 27 27 27 27 27 27 28 29 30 31 31 31 30 31 32 33
29 24 28 29 29 28 27 27 27 27 28 25 23 26 27 28 27 26 24 24 24 24 23 23 22 22 23 25 26 27 26 26 25 22 23 26 29 29 30 30 28 29 29 30
27 20 24 20 24 24 23 25 26 26 27 29 29 27 28 29 27 25 25 23 22 23 22 24 25 24 24 23 24 25 25 25 24 22 20 21 22 24 26 27 27 25 26 26
26 24 24 19 22 22 21 24 26 28 30 29 26 27 28 26 25 25 24 22 22 23 22 22 22 23 23 23 23 24 24 25 24 22 20 20 20 19 21 22 22 21 20 22
26 25 25 22 25 17 21 31 31 30 30 29 27 27 26 26 26 26 24 23 22 23 21 21 21 21 22 22 22 23 24 24 24 24 21 20 20 20 18 18 19 20 20 19
28 26 25 23 20 21 22 28 29 29 28 29 27 27 25 25 24 23 25 25 23 22 21 18 19 22 21 21 21 21 22 23 23 24 24 22 21 20 20 18 18 18 18 18
26 27 25 27 22 19 21 29 30 30 25 28 27 25 24 24 21 21 26 25 24 20 17 15 14 13 14 16 19 19 20 22 22 23 24 24 23 21 20 21 20 19 18 18
24 27 26 26 24 24 28 30 31 24 22 28 27 26 24 24 24 25 25 25 21 16 15 14 12 11 11 12 15 17 18 20 22 23 22 23 23 22 21 20 20 19 18 18
20 24 24 25 23 18 31 29 26 27 27 28 28 27 26 26 25 25 25 24 18 14 11 11 9 9 10 11 13 15 17 19 19 21 21 20 22 22 22 21 20 19 18 16
22 24 26 24 24 31 33 31 31 29 28 28 27 27 27 26 25 24 23 21 17 10 9 8 6 4 8 10 13 15 17 19 17 19 20 20 20 20 21 22 20 18 18 17
34 35 31 30 30 31 34 33 32 31 29 28 27 28 28 26 24 20 17 15 13 9 9 7 3 4 5 10 13 15 17 19 15 16 17 18 19 18 18 20 20 19 20 18
32 34 30 29 29 31 33 34 31 30 29 28 28 28 28 26 19 14 16 17 15 11 10 8 4 4 6 8 12 14 16 18 13 13 15 17 18 17 16 14 17 19 21 21
31 31 27 25 28 28 28 34 31 30 29 28 27 28 29 24 22 21 22 18 13 12 10 8 5 5 6 8 11 13 15 17 17 13 14 17 17 17 13 13 14 18 20 21

GFSCGP_sfc_dewp_138.txt.gz
Dewpoint
22 17 16 17 17 16 16 16 16 15 17 13 13 13 26 27 27 27 27 26 26 26 27 28 27 27 27 28 28 28 29 30 30 31 31 31 32 33 34 35 37 39 41 43
18 16 18 21 21 20 19 19 18 18 17 14 15 16 26 27 28 27 27 26 26 26 27 27 27 27 27 28 28 28 29 29 29 30 30 31 31 32 33 34 36 38 41 44
16 17 18 19 19 19 19 19 19 17 17 21 19 18 26 27 28 28 28 27 27 27 27 27 27 27 27 28 28 28 29 29 30 30 30 32 32 33 34 33 34 37 39 42
16 18 21 21 19 19 18 20 19 17 19 16 19 14 21 27 28 27 27 27 27 27 27 27 27 26 27 28 28 29 29 29 30 30 30 32 32 32 34 36 35 36 37 39
16 17 16 16 15 20 18 21 20 20 20 21 19 17 21 27 27 28 27 27 27 27 27 27 27 27 28 28 28 29 29 30 30 29 30 33 34 34 35 37 38 38 39 39
17 21 21 20 21 21 21 21 22 25 21 18 17 17 17 25 27 27 28 27 27 27 27 27 27 27 28 28 29 28 29 29 30 31 30 33 34 35 36 36 37 39 41 42
19 19 20 23 19 21 21 19 18 17 19 16 21 19 19 27 28 27 26 27 28 26 26 26 26 26 28 28 29 30 29 29 29 31 32 32 33 34 34 36 37 39 40 42
16 14 22 23 20 19 19 19 18 15 15 16 22 20 21 28 28 28 28 28 26 25 26 25 25 26 27 28 29 30 29 30 31 31 32 33 33 34 34 35 37 38 41 43
20 19 23 23 24 21 19 20 22 23 23 18 20 23 28 28 28 28 27 26 24 24 24 23 24 25 26 27 27 29 30 30 30 30 32 34 33 32 34 35 35 37 39 41
23 20 23 25 25 22 22 23 19 25 21 20 21 21 21 26 27 26 20 23 22 23 22 23 22 24 26 26 27 28 28 29 29 30 32 33 33 32 33 33 33 34 36 38
26 23 22 26 23 20 23 23 28 28 27 20 14 16 28 25 25 23 23 22 20 20 19 21 21 22 24 26 27 27 27 27 27 29 32 32 32 33 31 30 31 32 34 35
28 26 24 22 25 32 27 27 30 23 24 27 23 20 30 28 27 27 26 22 20 21 18 17 19 20 22 24 26 26 26 26 25 26 28 30 30 31 29 28 28 30 32 33
27 25 21 19 25 28 30 32 33 32 28 21 19 20 30 29 28 29 24 20 18 17 19 17 18 19 21 23 25 26 25 25 25 23 24 26 27 27 28 26 27 28 29 31
34 27 24 20 20 29 27 28 28 30 25 21 22 21 27 28 27 27 25 22 19 17 16 16 17 18 20 22 24 25 25 24 23 22 22 23 25 25 26 26 25 25 27 27
31 25 28 28 29 30 28 26 26 24 25 25 23 24 25 29 28 27 25 24 24 23 23 22 18 17 19 22 23 24 24 24 22 20 20 21 23 24 24 24 24 24 24 26
27 19 23 20 25 25 23 23 23 23 24 26 25 24 30 29 28 26 25 24 23 21 21 23 22 22 22 22 22 24 24 24 23 20 20 20 20 19 22 22 23 22 23 24
27 25 22 20 22 23 19 18 22 24 27 27 25 27 28 27 26 25 25 23 22 20 19 21 21 22 21 21 22 23 23 24 23 22 20 20 20 19 18 18 19 20 21 22
26 25 25 22 23 14 18 27 28 28 29 30 27 27 27 27 26 26 25 23 23 20 19 20 18 19 20 21 21 22 23 23 23 23 21 20 19 19 18 18 17 18 20 20
28 25 24 23 20 20 20 22 30 29 27 31 28 26 25 24 24 23 25 23 23 21 19 18 19 19 19 20 21 21 21 22 22 22 22 22 21 19 19 19 18 18 18 19
26 26 23 22 20 16 22 28 30 30 23 29 27 25 24 24 22 21 25 25 21 18 15 13 12 12 13 16 19 20 20 21 21 22 22 23 22 21 19 20 19 19 18 19
23 25 22 22 22 24 26 30 31 23 21 28 27 26 24 23 23 24 25 23 19 14 12 12 10 10 10 13 17 18 19 19 22 22 21 22 23 22 21 20 20 19 18 17
20 24 23 25 23 19 31 28 26 28 28 28 27 26 25 26 25 24 23 19 16 12 10 7 8 8 10 14 17 17 18 18 19 20 21 20 20 21 22 21 20 20 18 16
20 25 25 25 24 30 33 32 32 30 28 28 27 27 27 25 25 25 21 19 15 10 8 5 4 7 11 14 16 16 17 17 17 17 17 18 17 16 18 20 20 21 19 17
29 32 28 28 28 30 33 33 32 30 29 28 28 27 26 24 23 22 21 17 13 9 6 3 4 5 10 14 15 16 17 17 15 15 15 15 15 12 12 16 18 20 19 17
28 33 31 29 30 30 32 34 31 29 28 28 28 28 25 23 19 17 19 20 14 10 7 5 3 4 9 12 14 15 16 16 12 12 14 14 12 11 12 13 15 16 19 18
33 31 29 27 31 30 28 33 30 29 28 28 28 28 24 19 16 20 23 23 13 11 7 5 3 4 7 12 13 14 15 13 12 11 13 14 12 12 12 12 10 14 16 16

GFSCGP_sfc_dewp_144.txt.gz
Dewpoint
24 22 19 22 19 18 17 17 16 16 17 19 19 17 20 26 27 28 27 27 28 28 29 30 31 32 33 34 35 35 36 37 35 33 33 33 33 33 34 35 38 39 40 41
22 19 21 18 19 18 18 18 17 17 19 19 17 16 17 25 26 27 27 27 28 28 28 29 30 30 32 33 34 35 34 35 34 32 33 33 33 33 33 34 35 37 37 40
22 21 19 17 18 19 18 17 16 16 18 18 19 15 21 25 27 28 28 28 28 28 28 29 29 29 30 32 33 33 34 34 35 35 32 32 32 32 31 31 32 34 36 38
20 19 18 19 17 16 15 17 17 16 16 14 19 8 16 24 26 28 28 29 29 28 28 28 28 28 28 30 32 33 34 34 33 35 33 33 30 30 30 31 31 33 36 37
18 17 18 16 16 17 17 20 19 20 19 20 16 18 17 23 23 27 29 29 29 28 28 28 28 27 26 29 30 32 33 33 34 34 34 32 31 30 31 31 32 33 34 37
18 19 18 18 20 20 21 21 22 24 21 16 15 15 13 20 26 28 31 30 28 27 27 27 28 27 26 28 30 31 31 32 34 34 34 33 31 30 31 30 31 31 33 34
16 17 19 21 20 22 19 19 16 15 21 14 19 17 19 23 29 32 33 30 27 28 27 26 27 29 28 27 28 30 29 30 33 34 33 32 31 30 31 32 32 32 32 33
9 16 19 22 18 17 19 18 16 13 15 15 15 14 24 30 30 30 30 32 27 27 28 28 32 30 28 27 30 30 29 29 31 33 33 31 30 31 31 32 32 32 32 34
17 15 20 22 21 19 16 17 22 21 19 20 18 18 30 28 29 30 31 30 29 27 27 29 31 29 29 32 33 31 30 28 30 32 32 31 30 29 30 30 31 32 33 34
21 20 20 20 23 21 18 19 17 23 20 12 10 20 30 33 33 35 34 35 32 27 26 28 32 29 29 33 33 30 28 28 28 28 30 30 29 30 29 29 30 30 32 34
23 28 17 21 18 14 17 14 20 22 19 20 20 25 34 38 36 36 34 33 33 31 31 30 32 31 29 31 32 32 30 29 29 28 28 30 29 29 30 29 31 31 31 34
25 25 16 15 16 24 23 20 24 24 20 27 30 30 34 34 34 35 38 33 33 31 31 30 30 31 31 29 29 32 32 31 31 29 29 28 29 29 29 29 31 31 31 33
27 19 12 9 19 27 24 25 26 26 30 26 26 31 31 32 32 32 37 33 32 32 30 31 31 29 30 29 31 32 33 29 30 32 31 28 28 27 29 30 30 31 31 30
27 18 18 12 16 20 21 21 21 23 29 25 25 28 27 27 29 33 34 33 31 31 30 31 30 29 29 29 30 26 26 27 32 30 32 29 30 29 30 30 30 30 30 30
24 22 23 21 20 21 21 21 21 18 20 21 26 21 21 23 27 29 34 32 28 27 25 27 28 30 28 25 23 21 21 21 20 20 22 29 33 32 29 29 28 28 29 30
29 27 31 28 23 22 22 30 24 23 22 23 21 22 24 27 32 33 33 29 25 24 24 21 21 21 22 19 19 19 19 21 20 18 19 19 19 18 25 27 27 24 26 27
26 23 24 16 15 18 19 28 29 22 19 20 20 23 26 29 31 33 31 27 26 23 23 23 25 23 22 21 20 21 20 21 21 19 18 17 17 17 18 19 20 22 20 24
22 23 21 17 18 16 23 19 18 18 19 21 21 22 22 29 32 33 32 29 26 23 22 25 28 25 24 22 21 21 21 20 22 22 19 18 18 17 17 18 18 21 21 20
24 23 23 21 16 17 17 17 18 20 21 24 26 27 29 29 29 30 30 29 26 24 23 22 23 26 25 23 21 21 23 21 21 23 24 21 20 19 19 19 19 20 21 21
25 29 27 24 21 15 14 17 27 27 22 28 29 30 29 28 29 33 30 28 26 23 19 18 17 17 18 20 20 20 23 23 23 22 24 25 23 23 22 23 23 21 20 24
26 26 26 24 21 19 17 26 29 23 26 31 30 30 30 29 31 32 28 28 24 18 15 15 14 13 14 15 17 16 18 22 21 19 17 20 23 24 25 25 23 24 23 23
18 18 22 22 20 18 28 30 26 31 33 31 31 31 33 30 30 29 28 27 18 13 11 9 11 13 14 12 13 12 14 14 14 15 12 12 15 18 18 23 23 22 22 22
20 18 19 20 19 28 32 30 31 34 31 32 34 31 32 31 32 32 28 24 17 10 4 2 7 12 14 12 10 11 13 13 13 9 8 8 10 10 11 14 17 18 19 19
25 25 28 27 31 25 27 30 34 33 35 34 32 33 32 31 29 26 23 20 14 4 -2 -0 7 10 12 13 12 13 13 12 10 7 5 5 5 4 6 8 9 12 15 15
24 27 26 29 29 30 30 33 35 35 33 31 30 30 30 29 26 23 20 17 14 5 0 2 6 10 11 11 11 12 12 10 7 6 4 5 6 5 4 7 10 11 16 14
25 26 30 30 31 31 33 35 36 35 33 31 30 29 28 28 25 22 21 22 14 6 2 0 6 9 11 11 10 10 9 9 8 4 6 10 9 9 8 7 8 14 14 15